Wind_Speed
6 7 6 6 9 10 9 10 12 10 12 15 14 14 15 15 17 16 17 18 17 17 17 16 16 16 16 17 18 18 20 21 20 20 20 20 19 19 20 21 20 21 21 21
8 8 7 6 8 9 8 8 9 10 11 13 14 14 14 14 15 17 18 17 17 17 17 17 17 16 17 17 18 19 20 19 19 19 19 19 19 20 20 19 20 21 21 22
9 8 8 9 10 9 8 8 9 10 11 12 13 14 15 14 15 16 16 16 17 17 17 17 17 17 17 18 19 19 19 18 18 19 20 19 18 19 20 19 19 20 21 22
8 8 8 9 10 9 9 9 9 10 12 11 12 14 15 15 15 15 16 16 16 16 16 16 16 16 17 18 19 20 18 18 19 19 19 18 19 19 19 18 19 20 20 20
7 8 8 9 10 10 9 9 10 11 12 12 12 12 12 14 16 16 16 16 17 16 16 16 16 16 17 18 19 18 17 18 18 18 18 19 19 20 19 18 19 19 18 19
6 7 8 9 10 11 10 9 10 10 11 13 11 11 11 14 16 16 16 16 17 17 17 16 16 16 17 17 17 17 17 18 18 18 18 19 19 19 18 18 19 18 19 19
5 8 8 9 10 10 9 9 10 10 9 12 11 11 13 15 15 14 14 15 16 17 16 15 15 16 16 17 17 17 17 18 19 18 18 18 19 19 19 18 19 19 19 19
8 9 9 10 10 10 9 9 11 12 11 12 13 13 16 14 14 15 16 16 16 16 15 16 16 16 17 17 17 16 16 18 18 18 18 18 19 20 19 19 19 19 19 19
10 9 9 9 9 10 10 10 10 13 12 12 12 14 17 16 16 16 16 17 17 17 17 16 16 17 17 17 17 17 17 17 18 19 20 19 19 19 18 19 18 18 18 18
12 12 9 8 9 10 12 12 12 12 12 12 11 12 15 16 17 17 18 17 17 17 17 17 17 17 17 18 18 18 18 19 20 19 20 19 19 19 19 18 18 18 18 18
13 12 10 10 10 10 12 12 12 13 12 12 12 13 17 16 17 18 18 18 18 17 17 17 17 17 17 18 18 18 18 19 20 20 19 19 20 20 19 19 19 19 19 19
14 14 13 12 11 10 12 12 13 14 13 12 13 16 17 17 17 18 18 18 18 17 17 17 17 17 18 18 18 18 18 19 19 20 19 20 20 20 20 20 19 19 19 19
15 15 14 13 12 12 13 14 13 13 14 14 14 17 19 19 19 18 18 18 18 18 18 17 18 18 18 18 18 18 19 19 19 20 20 20 20 20 20 20 19 19 19 20
16 15 15 15 14 14 15 14 15 15 15 15 15 17 19 19 19 18 18 18 19 18 18 18 18 18 18 18 19 19 19 20 20 21 20 20 20 20 21 20 19 19 20 20
17 17 16 15 15 16 16 16 16 16 17 17 16 18 19 19 19 19 18 18 19 18 18 18 18 18 18 19 19 19 19 20 20 21 20 20 20 20 20 20 19 19 20 20
18 18 17 16 16 17 17 17 18 17 17 17 17 19 19 20 19 18 18 18 18 19 19 19 19 18 18 19 19 18 19 20 20 20 20 20 20 20 20 19 19 19 19 19
19 19 19 18 17 18 18 17 17 17 17 18 19 20 20 21 20 19 19 18 19 19 19 20 19 19 19 19 19 19 20 20 20 21 20 20 20 19 19 19 18 18 19 19
21 21 20 20 19 19 18 18 18 18 18 18 20 20 21 21 20 20 20 20 20 20 19 19 20 19 19 20 20 20 21 20 21 21 20 20 19 19 19 19 18 18 18 19
21 21 21 20 20 20 19 19 19 19 19 20 20 21 21 21 20 20 20 20 20 20 19 20 20 20 20 20 21 21 21 21 21 20 20 20 20 19 18 18 18 18 19 20
20 20 20 20 20 20 20 20 20 20 21 21 21 22 21 21 21 21 20 20 20 20 20 20 21 21 21 21 21 21 20 20 20 20 19 19 19 18 18 18 18 19 19 20
22 21 21 21 20 20 22 21 21 21 22 22 23 22 22 23 22 21 22 22 21 21 21 20 20 21 21 21 21 20 20 20 20 20 19 19 19 18 18 18 19 19 19 20
24 23 21 21 21 22 23 22 22 22 22 22 23 22 23 24 23 22 21 22 23 23 22 21 21 20 21 21 21 20 20 20 20 20 19 19 18 18 18 19 19 20 20 20
24 22 22 23 23 24 24 23 23 22 22 22 23 23 23 23 23 22 22 22 23 22 21 21 21 21 20 21 21 21 21 20 20 20 19 19 19 19 19 19 20 20 20 19
23 23 22 24 24 24 25 25 25 24 24 23 23 23 23 23 23 23 23 23 23 23 22 22 22 21 21 21 21 21 21 21 20 19 19 19 18 19 19 19 20 19 19 19
25 24 24 25 25 25 26 26 27 26 26 25 25 24 24 23 24 24 24 23 23 23 23 22 22 22 22 21 21 21 20 20 20 19 19 18 19 19 20 20 20 19 19 19
26 26 26 27 26 26 26 26 26 25 26 26 26 25 25 25 25 25 24 24 24 24 23 23 23 23 22 22 22 21 21 20 20 20 20 20 20 20 20 20 20 19 18 18
Wind_Direction
233 242 252 250 253 257 259 264 276 280 278 280 290 296 295 298 303 307 303 300 300 300 299 297 294 296 296 299 301 303 303 302 302 302 300 296 295 294 293 290 287 286 285 285
247 251 253 242 255 267 259 260 276 279 281 291 300 301 305 307 307 308 306 304 301 302 300 300 300 299 299 302 305 307 307 306 306 307 304 299 296 295 295 294 292 291 289 288
252 256 252 260 264 267 271 272 277 279 288 297 302 305 303 308 307 307 306 307 306 302 301 301 300 298 300 303 306 309 311 310 309 308 308 303 302 301 301 299 297 295 292 290
239 250 249 254 263 266 265 267 275 284 283 290 295 299 304 307 308 306 306 308 309 302 303 305 305 303 303 305 306 308 309 311 310 312 311 308 306 305 303 300 297 298 295 291
238 248 251 259 262 262 267 268 276 281 283 284 289 294 300 310 311 308 307 308 309 308 307 304 309 308 307 306 307 308 311 314 313 314 313 310 309 306 304 302 300 298 296 294
251 254 247 256 269 278 277 275 280 288 286 281 287 293 302 307 310 310 308 308 308 311 312 312 311 312 312 310 310 313 314 315 315 314 315 313 310 308 305 302 301 298 297 297
260 260 247 249 261 271 271 277 283 287 283 286 293 293 296 302 306 306 308 308 310 313 315 316 314 316 315 313 313 314 312 316 314 311 313 313 313 311 309 305 301 300 299 297
259 261 260 252 256 262 260 266 279 287 286 292 291 291 293 301 309 309 311 312 312 315 318 319 319 318 316 314 311 313 314 316 316 315 315 313 312 311 309 306 305 303 302 301
264 266 256 253 258 263 260 264 277 281 284 287 292 298 300 305 309 310 311 312 314 318 320 320 320 319 318 316 314 314 316 316 315 316 316 316 314 315 314 311 309 308 307 305
263 264 264 264 259 261 264 268 267 271 281 284 290 299 296 305 307 309 312 312 314 317 319 319 320 319 319 320 319 318 318 316 316 316 316 317 316 315 314 312 311 311 312 309
255 258 254 253 259 264 269 271 274 270 270 279 286 287 292 296 303 307 307 309 311 314 314 315 318 319 320 320 321 321 322 321 319 316 316 316 314 313 311 310 309 309 310 309
251 256 257 259 264 267 270 271 271 274 273 274 283 285 289 292 297 302 303 306 308 312 312 314 315 316 317 319 319 321 323 323 323 321 318 317 314 312 310 309 308 309 310 309
254 256 261 263 266 263 261 264 265 266 268 274 280 285 287 290 293 298 300 304 306 310 310 313 315 314 315 318 319 319 323 324 325 324 321 319 318 316 314 312 311 311 311 310
256 258 262 262 261 264 268 269 269 268 269 274 278 282 286 290 294 298 300 302 304 308 308 310 313 314 315 317 317 319 322 324 326 326 324 321 321 320 318 316 314 313 312 312
262 262 265 268 267 270 269 267 268 270 269 270 273 276 280 284 290 295 300 301 305 307 307 309 311 314 315 316 317 319 321 323 325 325 324 321 321 322 321 319 316 314 312 312
264 266 268 268 269 270 269 275 275 273 270 271 271 273 278 283 289 294 298 300 305 306 306 309 310 312 313 313 316 320 322 322 323 323 323 321 321 321 321 320 319 316 315 315
262 265 267 268 269 270 269 273 274 274 271 269 271 275 279 284 291 294 296 301 303 303 305 307 308 309 311 313 315 317 319 320 322 321 321 321 320 320 320 319 319 319 319 319
264 264 265 269 270 271 270 269 270 272 273 274 273 275 280 284 287 290 293 295 296 299 302 304 305 308 311 313 315 315 315 318 319 319 320 320 320 318 319 318 317 319 321 323
265 266 266 268 270 271 271 271 273 273 273 271 273 276 281 285 290 290 292 293 294 295 298 302 305 307 309 312 314 315 317 319 320 319 320 321 321 320 322 322 321 321 321 322
262 264 264 266 268 270 270 272 274 275 273 274 276 277 280 284 286 289 292 292 292 295 296 297 301 304 308 310 312 315 318 320 320 321 322 323 322 322 323 324 323 322 323 324
260 265 268 268 267 266 268 271 271 271 273 275 276 278 282 285 287 288 289 290 291 292 294 296 298 301 306 309 311 313 317 319 320 321 322 324 324 322 321 321 322 322 323 324
261 263 266 268 264 263 270 271 270 272 274 275 277 280 281 283 287 287 286 287 290 291 293 294 298 301 304 306 308 310 314 317 319 320 321 321 322 322 320 319 321 321 321 322
258 259 261 263 265 270 272 270 270 271 273 275 277 279 280 281 283 284 286 287 288 289 291 293 295 297 301 303 304 307 310 313 316 317 318 318 318 319 320 319 319 320 320 320
259 261 262 264 267 268 269 271 272 273 273 274 276 278 280 280 281 283 285 287 288 289 289 291 293 295 298 300 303 304 306 309 311 312 313 314 315 317 319 319 319 320 320 321
255 258 261 263 266 267 268 270 272 273 274 274 275 277 278 280 280 282 284 286 285 286 288 288 290 293 296 297 300 303 305 307 307 308 309 311 313 316 318 318 318 318 318 320
255 257 259 261 264 267 270 271 271 272 273 274 275 275 277 278 278 279 281 282 284 285 286 288 289 290 292 293 296 300 302 303 305 306 306 307 310 312 315 317 318 317 318 320
Height
5848 5850 5850 5852 5854 5854 5854 5853 5853 5854 5853 5852 5850 5848 5848 5846 5845 5844 5842 5840 5838 5837 5835 5834 5833 5831 5829 5827 5825 5823 5821 5818 5815 5812 5810 5808 5806 5804 5803 5802 5802 5802 5802 5801
5847 5848 5850 5851 5852 5852 5851 5852 5852 5853 5851 5850 5849 5848 5846 5845 5843 5841 5840 5838 5836 5834 5832 5831 5830 5828 5826 5824 5822 5819 5817 5814 5811 5809 5806 5804 5803 5801 5800 5798 5798 5797 5797 5796
5845 5849 5849 5850 5850 5850 5850 5851 5851 5851 5850 5849 5848 5847 5844 5843 5842 5840 5838 5836 5834 5832 5830 5828 5827 5825 5823 5821 5818 5816 5814 5811 5808 5806 5803 5801 5799 5797 5796 5795 5794 5793 5792 5791
5845 5847 5848 5849 5849 5850 5850 5850 5849 5849 5848 5848 5848 5845 5843 5841 5839 5838 5836 5834 5832 5829 5827 5825 5824 5822 5820 5818 5816 5813 5810 5808 5805 5803 5800 5798 5796 5794 5792 5791 5790 5788 5787 5786
5844 5845 5846 5847 5848 5848 5848 5848 5847 5847 5846 5845 5845 5844 5842 5840 5838 5836 5834 5832 5830 5827 5825 5822 5821 5819 5817 5815 5812 5810 5808 5805 5803 5800 5798 5795 5793 5790 5789 5787 5786 5784 5783 5782
5842 5844 5845 5846 5846 5846 5846 5846 5846 5845 5844 5843 5842 5842 5841 5838 5836 5834 5832 5830 5828 5826 5823 5821 5819 5817 5814 5812 5810 5808 5805 5803 5800 5798 5795 5792 5789 5787 5785 5784 5782 5781 5779 5777
5841 5842 5843 5844 5845 5845 5845 5845 5844 5843 5842 5842 5841 5840 5840 5837 5835 5832 5830 5828 5827 5824 5822 5820 5817 5815 5813 5810 5808 5805 5802 5799 5797 5794 5792 5789 5787 5784 5782 5780 5778 5776 5775 5773
5840 5841 5842 5842 5843 5843 5843 5843 5843 5842 5841 5840 5838 5837 5836 5833 5832 5831 5829 5827 5825 5823 5820 5818 5815 5813 5810 5808 5805 5803 5800 5797 5794 5791 5789 5787 5784 5781 5779 5776 5774 5772 5770 5768
5839 5839 5840 5839 5840 5841 5841 5841 5841 5840 5838 5838 5838 5835 5832 5831 5830 5829 5827 5825 5823 5820 5818 5815 5813 5810 5808 5805 5803 5800 5797 5795 5792 5790 5787 5784 5781 5778 5775 5773 5771 5769 5766 5764
5836 5836 5837 5838 5838 5839 5839 5839 5839 5837 5836 5835 5836 5834 5831 5829 5828 5827 5825 5823 5821 5818 5816 5813 5811 5808 5806 5803 5800 5797 5795 5792 5789 5786 5784 5781 5778 5775 5773 5770 5768 5765 5763 5761
5833 5834 5835 5835 5836 5836 5836 5836 5835 5834 5834 5833 5833 5833 5828 5826 5826 5825 5823 5820 5819 5816 5813 5811 5808 5806 5803 5801 5798 5795 5792 5789 5786 5783 5780 5777 5775 5772 5770 5767 5765 5762 5760 5758
5831 5831 5832 5832 5832 5833 5833 5833 5832 5832 5831 5831 5830 5831 5825 5824 5823 5822 5820 5818 5816 5813 5811 5808 5806 5803 5801 5798 5795 5792 5789 5786 5783 5780 5777 5774 5771 5769 5766 5763 5761 5759 5756 5754
5827 5828 5829 5830 5832 5831 5829 5829 5829 5829 5828 5827 5827 5828 5823 5821 5819 5818 5817 5815 5812 5810 5808 5805 5803 5800 5798 5795 5792 5789 5787 5784 5780 5777 5774 5771 5768 5765 5762 5759 5757 5755 5752 5750
5824 5824 5826 5826 5826 5826 5825 5825 5825 5825 5825 5824 5824 5822 5819 5817 5816 5814 5813 5812 5809 5807 5805 5802 5800 5797 5795 5792 5789 5786 5783 5780 5777 5774 5771 5768 5764 5761 5759 5756 5753 5751 5749 5746
5819 5821 5821 5821 5822 5822 5821 5821 5821 5821 5821 5821 5820 5818 5816 5815 5813 5811 5809 5808 5806 5803 5801 5799 5797 5794 5792 5789 5786 5783 5780 5777 5774 5771 5767 5764 5761 5758 5755 5753 5750 5747 5745 5742
5815 5816 5817 5817 5818 5817 5817 5817 5817 5817 5817 5816 5815 5814 5811 5810 5809 5807 5805 5804 5802 5800 5798 5796 5793 5791 5788 5786 5783 5780 5777 5774 5771 5768 5764 5761 5758 5755 5752 5749 5747 5744 5741 5739
5811 5812 5812 5813 5813 5813 5813 5814 5813 5812 5811 5811 5810 5810 5807 5806 5805 5803 5801 5800 5798 5796 5794 5792 5790 5787 5785 5783 5780 5777 5774 5771 5768 5764 5761 5758 5755 5751 5749 5746 5743 5740 5738 5735
5806 5807 5807 5808 5809 5808 5811 5809 5809 5808 5807 5805 5804 5803 5802 5801 5800 5799 5797 5796 5794 5792 5790 5787 5785 5784 5781 5779 5776 5773 5770 5767 5764 5760 5757 5753 5750 5747 5744 5742 5739 5737 5734 5731
5801 5802 5802 5803 5803 5803 5805 5803 5803 5803 5801 5800 5799 5798 5797 5797 5796 5794 5793 5791 5789 5788 5786 5784 5782 5780 5778 5775 5773 5770 5766 5763 5759 5756 5753 5749 5746 5743 5741 5738 5735 5733 5731 5728
5796 5796 5798 5797 5798 5798 5799 5797 5797 5798 5796 5795 5794 5793 5792 5792 5791 5790 5788 5786 5785 5783 5782 5780 5778 5776 5774 5771 5769 5766 5763 5759 5756 5752 5749 5746 5743 5740 5738 5735 5733 5730 5727 5724
5791 5791 5791 5792 5792 5792 5792 5792 5793 5793 5791 5789 5788 5788 5787 5787 5786 5785 5784 5782 5780 5779 5777 5776 5774 5772 5770 5767 5765 5762 5759 5756 5753 5749 5746 5743 5741 5738 5735 5733 5730 5727 5724 5721
5785 5786 5786 5786 5786 5788 5786 5786 5787 5786 5784 5784 5783 5782 5782 5781 5780 5779 5778 5777 5775 5774 5773 5771 5769 5767 5765 5763 5760 5758 5755 5752 5749 5746 5744 5741 5738 5735 5732 5730 5727 5724 5721 5718
5779 5781 5781 5781 5782 5780 5780 5780 5779 5779 5779 5778 5777 5777 5776 5775 5775 5774 5773 5771 5770 5769 5767 5766 5764 5763 5761 5759 5756 5754 5751 5749 5746 5743 5741 5738 5735 5732 5729 5727 5724 5721 5718 5715
5773 5773 5774 5774 5774 5773 5772 5773 5773 5773 5772 5772 5771 5771 5770 5769 5769 5768 5767 5766 5764 5763 5762 5761 5759 5757 5756 5754 5752 5749 5747 5745 5743 5740 5738 5735 5732 5729 5726 5724 5720 5717 5715 5711
5767 5767 5767 5768 5768 5767 5766 5766 5766 5766 5766 5765 5765 5764 5764 5763 5763 5762 5761 5760 5758 5757 5756 5755 5754 5752 5751 5749 5747 5745 5743 5741 5739 5736 5734 5732 5729 5726 5723 5720 5717 5714 5711 5708
5759 5760 5761 5761 5760 5761 5760 5759 5759 5759 5759 5758 5758 5758 5757 5756 5756 5755 5754 5753 5752 5751 5750 5749 5748 5746 5745 5744 5742 5740 5738 5736 5734 5732 5730 5728 5725 5723 5720 5717 5714 5711 5708 5705